Regional Weather Roundup
Issued by NWS

Home | Current Version | Previous Version | Graphics & Text | Print | Product List | Glossary On
Versions: 1 2 3 4 5 6 7 8 9 10 11 12 13 14 15 16 17 18 19 20 21 22 23 24 25 26 27 28 29 30 31 32 33 34 35 36 37 38 39 40 41 42 43 44 45 46 47 48 49 50
000
ASUS43 KFSD 310010
RWRSD

WEATHER ROUNDUP FOR SOUTH DAKOTA
NATIONAL WEATHER SERVICE SIOUX FALLS SD
700 PM CDT SAT AUG 30 2014

NOTE: "FAIR" INDICATES FEW OR NO CLOUDS BELOW 12,000 FEET WITH NO
SIGNIFICANT WEATHER AND/OR OBSTRUCTIONS TO VISIBILITY.


SDZ001>005-009-010-012>017-310100-
NORTHWEST AND NORTH CENTRAL SOUTH DAKOTA

CITY           SKY/WX    TMP DP  RH WIND       PRES   REMARKS
BUFFALO          N/A     77  61  57 NE15      29.60F
FAITH            N/A     77  61  57 SE24G32   29.65F
MOBRIDGE       SUNNY     74  58  57 SE14G24   29.71F
$$

SDZ012>016-024>037-041>051-057-063-072>074-310100-
SOUTHWEST AND SOUTH CENTRAL SOUTH DAKOTA

CITY           SKY/WX    TMP DP  RH WIND       PRES   REMARKS
RAPID CTY ARPT MOSUNNY   80  54  40 SE8       29.64F
PIERRE         SUNNY     77  62  59 SE20      29.71F
CUSTER         TSTM      67  48  50 NW5G23    29.83R
ELLSWORTH AFB  MOSUNNY   83  55  37 S10       29.63F
PHILIP         SUNNY     87  61  41 SE13      29.64F
PINE RIDGE     SUNNY     84  55  36 S16G26    29.69F
WINNER         FAIR      81  61  50 SE17G28   29.75F
$$

SDZ004>011-016>023-039-040-310100-
NORTHEAST SOUTH DAKOTA

CITY           SKY/WX    TMP DP  RH WIND       PRES   REMARKS
ABERDEEN       SUNNY     69  60  73 SE9       29.80F
WATERTOWN      MOSUNNY   68  59  73 SE7       29.84F
SISSETON         N/A     67  62  84 E7        29.81F
$$

SDZ017-020-022-023-036>040-048>070-310100-
SOUTHEAST SOUTH DAKOTA

CITY           SKY/WX    TMP DP  RH WIND       PRES   REMARKS
SIOUX FALLS    SUNNY     70  61  73 S9        29.85F
HURON          SUNNY     71  58  63 SE8       29.81S
CHAMBERLAIN    SUNNY     73  63  70 SE12G20   29.78S
MITCHELL       SUNNY     72  60  66 S9        29.82F
YANKTON        SUNNY     72  63  73 E7        29.83F
$$

ABBREVIATIONS USED IN REMARKS
   TC - TEMPERATURE IN CELSIUS
  WCI - WIND CHILL INDEX
   HX - HEAT INDEX
  VSB - VISIBILITY




USA.gov is the U.S. government's official web portal to all federal, state and local government web resources and services.